Location: Chimay
(50.0486°N, 4.3171°E)
Time: 17:51:11
(UTC+00:00)

Cosmos 1674 Rocket - Pass Details

Date: 08 August 2020
Orbit: 604 x 629 km, 82.5° (Epoch: 25 September)

Event Time Altitude Azimuth Distance (km) Brightness Sun altitude
Rises 22:26:21 0° 354° (N) 2,873 8.3 -21.7°
Reaches altitude 10° 22:28:39 10° 1° (N) 1,965 7.1 -21.9°
Maximum altitude 22:32:50 45° 74° (ENE) 833 4.1 -22.1°
Enters shadow 22:33:13 44° 91° (E) 849 4.0 -22.1°
